This demonstration page uses our WeatherBlox Daily Observations layout. Learn more.

Left ArrowRight Arrow

41.86663, -103.66717

Hourly Observations for March 3, 2016

Temp ( °F °C ) Dew Point ( °F °C ) Humidity (%) Winds ( mph kmh ) Pressure ( in mb ) Visibility ( mi km ) Precip ( " mm )
12:53 am 00:53 Clear 32 undefined 24 -4.4 73 73 WNW 10 17 30.06 1018 10 16 N/A
1:53 am 01:53 Clear 31 -0.6 24 -4.4 76 76 NW 10 17 30.09 1019 10 16 N/A
2:53 am 02:53 Clear 27 -2.8 22 -5.6 81 81 NW 9 15 30.11 1020 10 16 N/A
3:53 am 03:53 Clear 27 -2.8 22 -5.6 81 81 NNW 5 7 30.12 1020 10 16 N/A
4:53 am 04:53 Clear 26 -3.3 21 -6.1 81 81 NNW 8 13 30.15 1021 10 16 N/A
5:53 am 05:53 Clear 25 -3.9 20 -6.7 81 81 WNW 6 9 30.16 1022 10 16 N/A
6:53 am 06:53 Sunny 26 -3.3 21 -6.1 81 81 NNW 7 11 30.17 1022 10 16 N/A
7:53 am 07:53 Sunny 33 0.6 24 -4.4 70 70 NW 6 9 30.16 1021 10 16 N/A
8:53 am 08:53 Sunny 39 3.9 25 -3.9 57 57 VRB 3 6 30.14 1021 10 16 N/A
9:53 am 09:53 Sunny 47 8.3 24 -4.4 41 41 SSW 3 6 30.11 1020 10 16 N/A
10:53 am 10:53 Sunny 52 11.1 23 -5 32 32 undefined N/A 30.06 1018 10 16 N/A
11:53 am 11:53 Sunny 56 13.3 23 -5 28 28 N N/A 30.02 1017 10 16 N/A
12:53 pm 12:53 Sunny 60 15.6 21 -6.1 22 22 N 6 9 29.98 1015 10 16 N/A
1:53 pm 13:53 Sunny 65 18.3 13 -10.6 13 13 VRB 7 11 29.93 1014 10 16 N/A
2:53 pm 14:53 Sunny 65 18.3 15 -9.4 14 14 SW 6 9 29.93 1014 10 16 N/A
3:53 pm 15:53 Sunny 67 19.4 11 -11.7 11 11 NNE 7 11 29.91 1013 10 16 N/A
4:53 pm 16:53 Sunny 67 19.4 11 -11.7 11 11 E 7 11 29.91 1013 10 16 N/A
5:53 pm 17:53 Clear 51 10.6 20 -6.7 29 29 SE 10 17 29.98 1015 10 16 N/A
6:53 pm 18:53 Clear 47 8.3 21 -6.1 36 36 SE 6 9 29.99 1016 10 16 N/A
7:53 pm 19:53 Clear 40 4.4 20 -6.7 45 45 ENE 6 9 29.99 1016 10 16 N/A
8:53 pm 20:53 Clear 44 6.7 20 -6.7 38 38 E 3 6 29.96 1014 10 16 N/A
9:53 pm 21:53 Clear 39 3.9 21 -6.1 48 48 VRB 3 6 29.94 1014 10 16 N/A
10:53 pm 22:53 Clear 35 1.7 21 -6.1 57 57 NE 6 9 29.93 1014 10 16 N/A
11:53 pm 23:53 Clear 34 1.1 21 -6.1 59 59 N N/A 29.93 1013 10 16 N/A

Powered by AerisWeather